Santander Airport, Spain

11:42 PM CET en Noviembre 16, 2018 (GMT +0100)
Santander Airport

Tiempo Historia de LEXJ - Noviembre, 2018

Change the Weather History Date:

Viernes, Noviembre 9, 2018

  Actual Average Record
Temperature  
Temperatura media 58 ° F -  
Temperatura máxima 64 ° F 56 ° F 73 ° F (1998)
Temperatura mínima 51 ° F 46 ° F 42 ° F (2001)
Degree Days  
Grados día de calefacción 8    
Growing Degree Days 8 (Base 50)    
Moisture  
Punto de rocío 47 ° F    
Average Humidity 66    
Maximum Humidity 100    
Minimum Humidity 36    
Precipitación  
Precipitación 0.16 pul - - ()
Presión al nivel del mar  
Presión al nivel del mar 29.90 pul    
Viento  
Velocidad del viento 10 mph ()    
Velocidad máxima del viento 29 mph    
Max Gust Speed 50 mph    
Visibilidad 6.6 Millas    
Eventos Lluvia    
Averages and records for this station are not official NWS values.
T = Trace of Precipitation, MM = Missing Value Source: Averaged Metar Reports

Daily Weather History Graph

Daily Weather History Graph

Search for Another Location

Airport or City:

Astronomía

Nov. 09, 2018 Salida Puesta
Hora real 8:00 AM CET 5:56 PM CET
Crepúsculo civil 7:30 AM CET 6:27 PM CET
Crepúsculo náutico 6:56 AM CET 7:01 PM CET
Crepúsculo astronómico 6:22 AM CET 7:34 PM CET
Luna 9:37 AM CET (11/9) 7:31 PM CET (11/9)
Horas de luz 10h 56m
Horas de luz
9h 56m
Creciente, 4% of the Moon is Illuminated
Nov 9
Creciente
Nov 15
Cuarto creciente
Nov 23
Luna llena
Nov 30
Cuarto menguante
Dic 7
Nueva

Hourly Weather History & Observations

Hora (CET) Temp. Punto de rocío Humedad Presión Visibilidad Wind Dir Velocidad del viento Velocidad de ráfagas Precip Eventos Condiciones
12:00 AM 57.2 ° F 50.0 ° F 77% 29.89 pul - ONO 8.1 mph - N/A   Muy nublado
12:30 AM 53.6 ° F 51.8 ° F 94% 29.92 pul 4.3 mi Oeste 8.1 mph - N/A Lluvia Lluvia
1:00 AM 54 ° F 52 ° F 90% 29.93 pul - Sur 9.2 mph - -   Precipitación desconocida
1:00 AM 53.6 ° F 53.6 ° F 100% 29.92 pul 5.0 mi Sur 5.8 mph - N/A Lluvia Lluvia débil
2:00 AM 53 ° F 52 ° F 96% 29.94 pul - ONO 3.5 mph - -   Precipitación desconocida
2:00 AM 53.6 ° F 53.6 ° F 100% 29.92 pul 5.6 mi Variable 2.3 mph - N/A Lluvia Lluvia débil
2:30 AM 53.6 ° F 53.6 ° F 100% 29.95 pul 4.3 mi SSO 4.6 mph - N/A Lluvia Lluvia débil
3:00 AM 53 ° F 52 ° F 97% 29.97 pul - SSO 4.6 mph - -   Precipitación desconocida
3:00 AM 53.6 ° F 53.6 ° F 100% 29.95 pul 5.0 mi SO 3.5 mph - N/A Lluvia Lluvia débil
3:30 AM 51.8 ° F 51.8 ° F 100% 29.95 pul 5.0 mi SSO 5.8 mph - N/A   Nubes dispersas
4:00 AM 51.8 ° F 50.0 ° F 94% 29.98 pul 5.6 mi SO 6.9 mph - N/A   Nubes dispersas
4:30 AM 53.6 ° F 48.2 ° F 82% 29.98 pul 4.3 mi Oeste 15.0 mph - N/A   Muy nublado
5:00 AM 53 ° F 49 ° F 80% 30.01 pul - SO 8.1 mph - -  
5:00 AM 53.6 ° F 48.2 ° F 82% 30.01 pul 5.6 mi SO 8.1 mph - N/A   Muy nublado
5:30 AM 51.8 ° F 50.0 ° F 94% 30.01 pul 6.2 mi SO 6.9 mph - N/A   Llovizna débil
6:00 AM 53 ° F 48 ° F 76% 30.01 pul - SSO 6.9 mph - -  
6:00 AM 53.6 ° F 48.2 ° F 82% 30.01 pul 6.2 mi SSO 6.9 mph - N/A   Muy nublado
6:30 AM 53.6 ° F 46.4 ° F 77% 30.01 pul 6.2 mi SO 8.1 mph - N/A   Muy nublado
7:00 AM 53 ° F 47 ° F 73% 30.02 pul 9 mi SO 8.1 mph - -   Parcialmente nublado
7:00 AM 53.6 ° F 46.4 ° F 77% 30.01 pul 6.2 mi SO 8.1 mph - N/A   Muy nublado
7:30 AM 51.8 ° F 46.4 ° F 82% 30.01 pul 6.2 mi SO 8.1 mph - N/A   Muy nublado
8:00 AM 51.8 ° F 44.6 ° F 76% 30.01 pul 6.2 mi SO 9.2 mph - N/A   Nubes dispersas
8:30 AM 51.8 ° F 44.6 ° F 76% 30.01 pul 6.2 mi SSO 8.1 mph - N/A   Parcialmente nublado
9:00 AM 53 ° F 46 ° F 69% 30.02 pul - SSO 8.1 mph - -  
9:00 AM 51.8 ° F 44.6 ° F 76% 30.01 pul - SSO 9.2 mph - N/A   Despejado
9:30 AM 53.6 ° F 46.4 ° F 77% 30.04 pul - SO 8.1 mph - N/A   Despejado
10:00 AM 55 ° F 47 ° F 67% 30.04 pul 19 mi SSO 8.1 mph - -   Nubes dispersas
10:00 AM 55.4 ° F 44.6 ° F 67% 30.04 pul - SSO 8.1 mph - N/A   Despejado
10:30 AM 57.2 ° F 44.6 ° F 63% 30.01 pul - SSO 9.2 mph - N/A   Despejado
11:00 AM 59 ° F 46 ° F 51% 30.00 pul - Sur 8.1 mph - -  
11:00 AM 59.0 ° F 42.8 ° F 55% 29.98 pul - Sur 8.1 mph - N/A   Despejado
11:30 AM 60.8 ° F 42.8 ° F 52% 29.98 pul - Sur 8.1 mph - N/A   Despejado
12:00 PM 61 ° F 44 ° F 43% 29.97 pul - Sur 10.4 mph - -  
12:00 PM 59.0 ° F 42.8 ° F 55% 29.98 pul - Sur 15.0 mph - N/A   Despejado
12:30 PM 60.8 ° F 42.8 ° F 52% 29.95 pul - Sur 13.8 mph - N/A   Despejado
1:00 PM 62 ° F 43 ° F 39% 29.93 pul 19 mi Sur 10.4 mph - -   Despejado
1:00 PM 60.8 ° F 42.8 ° F 52% 29.92 pul - Sur 11.5 mph - N/A   Despejado
1:30 PM 62.6 ° F 41.0 ° F 45% 29.89 pul - Sur 17.3 mph 28.8 mph N/A   Despejado
2:00 PM 62.6 ° F 41.0 ° F 45% 29.89 pul 6.2 mi SSO 12.7 mph - N/A   Parcialmente nublado
2:30 PM 62.6 ° F 41.0 ° F 45% 29.86 pul - Sur 15.0 mph - N/A   Despejado
3:00 PM 64 ° F 44 ° F 36% 29.86 pul - Sur 16.1 mph - -  
3:00 PM 64.4 ° F 42.8 ° F 45% 29.86 pul - SSO 15.0 mph - N/A   Despejado
3:30 PM 62.6 ° F 42.8 ° F 48% 29.83 pul - Sur 18.4 mph - N/A   Despejado
4:00 PM 62.6 ° F 42.8 ° F 48% 29.83 pul 6.2 mi Sur 17.3 mph 28.8 mph N/A   Parcialmente nublado
4:30 PM 62.6 ° F 42.8 ° F 48% 29.83 pul 6.2 mi SSO 18.4 mph 31.1 mph N/A   Nubes dispersas
5:00 PM 62.6 ° F 44.6 ° F 52% 29.80 pul 6.2 mi Sur 20.7 mph 33.4 mph N/A   Muy nublado
5:30 PM 60.8 ° F 44.6 ° F 55% 29.80 pul 6.2 mi Sur 19.6 mph 34.5 mph N/A   Nubes dispersas
6:00 PM 60 ° F 46 ° F 49% 29.80 pul - Sur 19.6 mph - -  
6:00 PM 60.8 ° F 46.4 ° F 59% 29.80 pul 6.2 mi Sur 18.4 mph 35.7 mph N/A   Parcialmente nublado
6:30 PM 60.8 ° F 44.6 ° F 55% 29.77 pul 6.2 mi SSO 19.6 mph 34.5 mph N/A   Parcialmente nublado
7:00 PM 60 ° F 47 ° F 53% 29.81 pul 22 mi SSO 25.3 mph - - Lluvia Lluvia débil
7:00 PM 60.8 ° F 46.4 ° F 59% 29.80 pul 6.2 mi SSO 20.7 mph 36.8 mph N/A Lluvia Lluvia débil
7:30 PM 60.8 ° F 46.4 ° F 59% 29.77 pul 6.2 mi SSO 19.6 mph 41.4 mph N/A   Parcialmente nublado
8:00 PM 60 ° F 47 ° F 52% 29.79 pul - Sur 27.6 mph - -  
8:00 PM 60.8 ° F 46.4 ° F 59% 29.77 pul 6.2 mi SSO 25.3 mph 42.6 mph N/A   Parcialmente nublado
8:30 PM 60.8 ° F 46.4 ° F 59% 29.77 pul 6.2 mi SSO 25.3 mph 42.6 mph N/A   Parcialmente nublado
9:00 PM 61 ° F 48 ° F 53% 29.76 pul - Sur 24.2 mph - -  
9:00 PM 60.8 ° F 48.2 ° F 63% 29.74 pul - SSO 26.5 mph 40.3 mph N/A   Despejado
9:30 PM 62.6 ° F 48.2 ° F 59% 29.74 pul - SSO 28.8 mph 44.9 mph N/A   Despejado
10:00 PM 61 ° F 48 ° F 53% 29.75 pul 22 mi Sur 26.5 mph - -   Nublado
10:00 PM 62.6 ° F 48.2 ° F 59% 29.74 pul - Sur 27.6 mph 43.7 mph N/A   Despejado
10:30 PM 62.6 ° F 48.2 ° F 59% 29.74 pul - SSO 26.5 mph 49.5 mph N/A   Despejado
11:00 PM 62 ° F 49 ° F 52% 29.72 pul - Sur 23.0 mph - -  
11:00 PM 62.6 ° F 48.2 ° F 59% 29.71 pul - Sur 24.2 mph 43.7 mph N/A   Despejado
11:30 PM 62.6 ° F 48.2 ° F 59% 29.68 pul 2.8 mi SSO 24.2 mph 40.3 mph N/A   Bruma